QLK1898 YBBN-YBHM

Flight info

Callsign QLK1898
Flight time N/A
Altitude 34000
Route BIXAD2/01L BIXAD Q67 OVRON
Aircraft E190/M-SDE3GILORVW/S

Departure

Time 2026-05-05 07:42
Airport Brisbane International Airport (YBBN)

Arrival

Time N/A
Airport Hamilton Island Airport (YBHM)
Time Latitude Longitude Altitude Speed Heading
2026-05-05 07:24 -27.38223 153.12352 20 ft 0 kts 118°
2026-05-05 07:29 -27.38223 153.12353 20 ft 0 kts 118°
2026-05-05 07:29 -27.38241 153.12386 21 ft 10 kts 119°
2026-05-05 07:29 -27.38272 153.12455 20 ft 11 kts 116°
2026-05-05 07:29 -27.38279 153.12471 22 ft 3 kts 116°
2026-05-05 07:30 -27.38298 153.12513 20 ft 5 kts 116°
2026-05-05 07:30 -27.38256 153.12515 20 ft 9 kts 13°
2026-05-05 07:30 -27.38200 153.12545 20 ft 7 kts 27°
2026-05-05 07:31 -27.38139 153.12580 21 ft 12 kts 27°
2026-05-05 07:31 -27.38050 153.12630 21 ft 10 kts 26°
2026-05-05 07:31 -27.37999 153.12652 20 ft 7 kts 34°
2026-05-05 07:31 -27.37939 153.12686 20 ft 12 kts
2026-05-05 07:32 -27.37885 153.12624 22 ft 14 kts 295°
2026-05-05 07:32 -27.37851 153.12551 20 ft 0 kts 297°
2026-05-05 07:32 -27.37842 153.12530 20 ft 6 kts 297°
2026-05-05 07:32 -27.37817 153.12474 22 ft 11 kts 297°
2026-05-05 07:33 -27.37775 153.12384 20 ft 15 kts 297°
2026-05-05 07:33 -27.37720 153.12262 20 ft 20 kts 297°
2026-05-05 07:33 -27.37652 153.12112 21 ft 23 kts 297°
2026-05-05 07:33 -27.37572 153.11936 20 ft 25 kts 297°
2026-05-05 07:34 -27.37513 153.11810 21 ft 19 kts 297°
2026-05-05 07:34 -27.37446 153.11662 20 ft 23 kts 297°
2026-05-05 07:34 -27.37401 153.11540 20 ft 7 kts 258°
2026-05-05 07:34 -27.37431 153.11507 20 ft 8 kts 208°
2026-05-05 07:35 -27.37497 153.11470 21 ft 13 kts 207°
2026-05-05 07:35 -27.37592 153.11415 20 ft 18 kts 207°
2026-05-05 07:35 -27.37695 153.11357 22 ft 9 kts 207°
2026-05-05 07:35 -27.37764 153.11317 20 ft 14 kts 207°
2026-05-05 07:36 -27.37820 153.11285 20 ft 9 kts 207°
2026-05-05 07:36 -27.37893 153.11243 20 ft 14 kts 207°
2026-05-05 07:36 -27.37995 153.11184 20 ft 19 kts 207°
2026-05-05 07:36 -27.38122 153.11112 20 ft 23 kts 207°
2026-05-05 07:37 -27.38221 153.11055 20 ft 14 kts 207°
2026-05-05 07:37 -27.38325 153.10996 20 ft 19 kts 207°
2026-05-05 07:37 -27.38429 153.10931 22 ft 10 kts 223°
2026-05-05 07:37 -27.38423 153.10849 21 ft 13 kts 298°
2026-05-05 07:38 -27.38386 153.10767 22 ft 0 kts 297°
2026-05-05 07:40 -27.38385 153.10765 22 ft 1 kts 297°
2026-05-05 07:40 -27.38374 153.10742 22 ft 5 kts 299°
2026-05-05 07:41 -27.38341 153.10698 22 ft 10 kts 322°
2026-05-05 07:41 -27.38265 153.10703 22 ft 14 kts 28°
2026-05-05 07:41 -27.38159 153.10766 22 ft 30 kts 27°
2026-05-05 07:41 -27.37605 153.11085 20 ft 147 kts 27°
2026-05-05 07:42 -27.36449 153.11749 515 ft 203 kts 26°
2026-05-05 07:42 -27.35203 153.12456 742 ft 203 kts 26°
2026-05-05 07:42 -27.33966 153.13139 727 ft 206 kts 25°
2026-05-05 07:42 -27.32642 153.13868 684 ft 214 kts 26°
2026-05-05 07:43 -27.31301 153.14622 847 ft 219 kts 26°
2026-05-05 07:43 -27.29939 153.15406 1047 ft 218 kts 27°
2026-05-05 07:43 -27.28582 153.16192 1637 ft 222 kts 26°
2026-05-05 07:43 -27.27197 153.16982 2266 ft 223 kts 26°
2026-05-05 07:44 -27.25786 153.17784 2779 ft 229 kts 26°
2026-05-05 07:44 -27.24374 153.18589 3182 ft 230 kts 26°
2026-05-05 07:44 -27.22955 153.19409 3817 ft 230 kts 27°
2026-05-05 07:44 -27.21518 153.20258 4351 ft 234 kts 27°
2026-05-05 07:45 -27.20070 153.21124 4822 ft 235 kts 28°
2026-05-05 07:45 -27.18615 153.22004 5211 ft 237 kts 28°
2026-05-05 07:45 -27.17151 153.22873 5682 ft 240 kts 27°
2026-05-05 07:45 -27.15668 153.23756 5923 ft 241 kts 28°
2026-05-05 07:46 -27.14346 153.24612 6192 ft 244 kts 30°